Terminal Aerodrome Forecast
Issued by NWS

Home | Current Version | Previous Version | Text Only | Print | Product List | Glossary On
Versions: 1 2 3 4 5 6 7 8 9 10 11 12 13 14 15 16 17 18 19 20 21 22 23 24
000
FTUS46 KOTX 050526
TAFSFF
TAF
KSFF 050526Z 0506/0606 22006KT P6SM SKC
     FM050800 22012KT P6SM FEW100
     FM051400 22012G22KT P6SM BKN080
     FM060200 23010G16KT P6SM SCT080
     FM060500 23005KT P6SM SCT080=

USA.gov is the U.S. government's official web portal to all federal, state and local government web resources and services.